Location: Ferchesar
(52.6477°N, 12.4298°E)
Time: 13:28:50
(UTC+01:00)

Transit 2A Rocket - All Passes

Search period start: 07 March 2021 00:00
Search period end: 17 March 2021 00:00
Orbit: 594 x 908 km, 66.7° (Epoch: 06 March)

Date Brightness Start Highest point End Pass type
(mag) Time Alt. Az. Time Alt. Az. Time Alt. Az.
07 Mar - 01:01:39 10° SE 01:03:54 13° ESE 01:06:06 10° E visible
07 Mar - 02:40:55 10° SSW 02:45:47 75° SE 02:50:16 10° NE visible
07 Mar - 04:24:43 10° W 04:28:43 27° NNW 04:32:32 10° NNE visible
07 Mar - 06:10:22 10° NW 06:12:43 14° N 06:15:01 10° NNE visible
07 Mar - 07:54:07 10° NNW 07:57:00 17° NNE 07:59:51 10° ENE daylight
07 Mar - 09:36:20 10° NNW 09:40:33 48° NE 09:44:47 10° ESE daylight
07 Mar - 11:19:10 10° WNW 11:22:54 29° WSW 11:26:42 10° S daylight
08 Mar - 01:58:35 10° SSW 02:03:14 46° ESE 02:07:35 10° NE visible
08 Mar - 03:41:29 10° WSW 03:45:53 37° NW 03:50:02 10° NNE visible
08 Mar - 05:26:54 10° NW 05:29:37 15° NNW 05:32:17 10° NNE visible
08 Mar - 07:11:28 10° NNW 07:13:56 15° NNE 07:16:23 10° NE daylight
08 Mar - 08:53:49 10° NNW 08:57:46 33° NE 09:01:43 10° ESE daylight
08 Mar - 10:36:17 10° NW 10:40:27 48° WSW 10:44:41 10° SSE daylight
09 Mar - 01:16:36 10° S 01:20:46 29° ESE 01:24:42 10° ENE visible
09 Mar - 02:58:27 10° WSW 03:03:08 54° NW 03:07:31 10° NE visible
09 Mar - 04:43:24 10° WNW 04:46:34 18° NNW 04:49:40 10° NNE visible
09 Mar - 06:28:38 10° NNW 06:30:50 13° N 06:33:01 10° NE daylight
09 Mar - 08:11:19 10° NNW 08:14:54 24° NNE 08:18:29 10° E daylight
09 Mar - 09:53:36 10° NW 09:57:56 80° SW 10:02:18 10° SSE daylight
09 Mar - 11:37:50 10° W 11:39:44 13° WSW 11:41:38 10° SW daylight
10 Mar - 00:35:09 10° SSE 00:38:24 18° ESE 00:41:31 10° ENE visible
10 Mar - 02:15:38 10° SW 02:20:27 83° NW 02:24:58 10° NE visible
10 Mar - 03:59:56 10° W 04:03:36 23° NNW 04:07:08 10° NNE visible
10 Mar - 05:45:32 10° NNW 05:47:43 13° N 05:49:53 10° NNE visible
10 Mar - 07:28:47 10° NNW 07:31:57 19° NNE 07:35:05 10° ENE daylight
10 Mar - 09:10:59 10° NW 09:15:18 64° NE 09:19:39 10° SE daylight
10 Mar - 10:54:09 10° WNW 10:57:26 21° WSW 11:00:45 10° SSW daylight
10 Mar - 23:55:03 10° ESE 23:56:07 11° ESE 23:57:11 10° E night (unlit)
11 Mar - 01:33:06 10° SSW 01:37:52 63° SE 01:42:19 10° NE visible
11 Mar - 03:16:36 10° W 03:20:43 30° NW 03:24:38 10° NNE visible
11 Mar - 05:02:11 10° NW 05:04:37 14° N 05:06:59 10° NNE visible
11 Mar - 06:46:12 10° NNW 06:48:55 16° NNE 06:51:37 10° NE daylight
11 Mar - 08:28:27 10° NNW 08:32:35 42° NE 08:36:44 10° ESE daylight
11 Mar - 10:11:07 10° NW 10:15:02 35° WSW 10:19:03 10° S daylight
12 Mar - 00:50:53 10° S 00:55:22 39° ESE 00:59:34 10° NE visible
12 Mar - 02:33:25 10° WSW 02:37:54 42° NW 02:42:07 10° NNE visible
12 Mar - 04:18:42 10° WNW 04:21:32 16° NNW 04:24:19 10° NNE visible
12 Mar - 06:03:30 10° NNW 06:05:51 14° N 06:08:10 10° NE daylight
12 Mar - 07:45:56 10° NNW 07:49:45 29° NE 07:53:36 10° E daylight
12 Mar - 09:28:19 10° NW 09:32:34 58° SW 09:36:53 10° SSE daylight
13 Mar - 00:09:04 10° SSE 00:12:56 24° ESE 00:16:36 10° ENE visible
13 Mar - 01:50:28 10° SW 01:55:11 63° NW 01:59:36 10° NE visible
13 Mar - 03:35:11 10° WNW 03:38:31 19° NNW 03:41:45 10° NNE visible
13 Mar - 05:20:35 10° NNW 05:22:44 13° N 05:24:52 10° NNE visible
13 Mar - 07:03:25 10° NNW 07:06:52 22° NNE 07:10:17 10° E daylight
13 Mar - 08:45:39 10° NW 08:50:00 86° NE 08:54:24 10° SE daylight
13 Mar - 10:29:22 10° WNW 10:31:55 15° WSW 10:34:30 10° SW daylight
13 Mar - 23:27:54 10° SE 23:30:35 15° ESE 23:33:12 10° ENE night (unlit)
14 Mar - 01:07:45 10° SW 01:12:32 85° SE 01:17:00 10° NE visible
14 Mar - 02:51:45 10° W 02:55:34 25° NNW 02:59:13 10° NNE visible
14 Mar - 04:37:24 10° NW 04:39:37 13° N 04:41:48 10° NNE visible
14 Mar - 06:20:53 10° NNW 06:23:53 18° NNE 06:26:52 10° ENE daylight
14 Mar - 08:03:04 10° NW 08:07:20 55° NE 08:11:39 10° ESE daylight
14 Mar - 09:46:01 10° WNW 09:49:35 25° WSW 09:53:14 10° S daylight
15 Mar - 00:25:19 10° SSW 00:29:58 53° ESE 00:34:20 10° NE visible
15 Mar - 02:08:29 10° WSW 02:12:42 33° NW 02:16:43 10° NNE visible
15 Mar - 03:53:59 10° NW 03:56:31 15° NNW 03:59:00 10° NNE visible
15 Mar - 05:38:16 10° NNW 05:40:50 15° NNE 05:43:23 10° NE visible
15 Mar - 07:20:33 10° NNW 07:24:35 37° NE 07:28:39 10° ESE daylight
15 Mar - 09:03:05 10° NW 09:07:10 42° WSW 09:11:20 10° S daylight
15 Mar - 23:43:13 10° S 23:47:29 33° ESE 23:51:30 10° NE visible
16 Mar - 01:25:23 10° WSW 01:29:55 48° NW 01:34:13 10° NNE visible
16 Mar - 03:10:29 10° WNW 03:13:27 17° NNW 03:16:22 10° NNE visible
16 Mar - 04:55:30 10° NNW 04:57:44 14° N 04:59:57 10° NE visible
16 Mar - 06:38:02 10° NNW 06:41:44 26° NNE 06:45:26 10° E daylight
16 Mar - 08:20:21 10° NW 08:24:39 70° SW 08:29:03 10° SSE daylight
16 Mar - 10:05:18 10° W 10:06:22 11° WSW 10:07:27 10° WSW daylight
16 Mar - 23:01:36 10° SSE 23:05:06 20° ESE 23:08:26 10° ENE night (unlit)
